Vorticity
8 5 2 2 1 4 6 8 6 3 7 4 6 8 9 6 9 6 4 4 8 4 6 9 8 8 7 7 5 4 5 5
10 8 6 9 12 16 10 1 3 5 5 5 3 7 4 5 5 6 -1 4 -0 -0 4 9 5 5 7 7 6 6 3 7
12 10 11 14 8 1 10 5 10 8 6 -2 -0 1 -0 -3 4 1 2 1 0 -9 7 11 4 4 6 8 8 8 7 9
4 2 1 3 1 4 7 9 6 5 3 1 1 2 2 6 3 1 2 1 5 5 9 4 6 8 13 11 9 8 8 7
4 5 5 3 9 8 10 7 5 2 3 3 3 4 5 2 1 2 0 2 6 18 11 9 11 11 5 6 7 7 5 5
3 7 6 7 7 6 7 5 4 3 1 3 4 5 -7 12 12 20 18 16 13 11 10 10 5 7 8 7 5 9 10 10
-3 15 9 6 6 4 6 11 8 6 6 4 -0 3 8 3 13 10 10 17 13 5 1 5 6 7 8 8 8 12 10 14
11 12 12 12 10 7 7 8 7 6 4 -2 2 9 13 19 13 11 13 7 2 -1 4 8 4 7 8 9 13 15 18 20
1 7 8 10 13 12 10 3 3 3 1 11 15 25 18 15 12 6 2 5 9 7 10 8 11 13 16 22 27 26 23 25
20 20 14 9 6 5 5 6 11 16 17 14 11 14 9 4 2 8 7 5 5 3 12 25 30 28 31 30 23 21 11 11
12 4 1 10 12 11 9 13 13 7 11 20 18 6 2 5 3 3 4 6 14 26 33 26 23 23 4 1 9 20 29 20
9 4 -1 2 6 7 9 12 13 19 13 10 5 5 4 3 5 7 14 24 32 28 22 14 10 3 14 11 10 10 12 8
0 1 -11 -6 4 5 16 14 13 16 7 4 4 5 6 7 13 18 29 22 17 13 14 14 8 8 7 8 9 11 10 15
-2 2 3 5 12 19 8 14 11 4 7 6 7 6 9 10 17 24 14 15 12 9 20 14 8 8 11 13 17 17 16 12
6 8 19 21 14 12 8 10 7 3 6 7 10 11 14 22 25 15 28 19 7 7 2 -9 9 14 15 14 11 10 10 10
-11 18 8 15 5 10 14 8 13 10 8 9 12 16 24 21 16 13 -5 -20 13 3 1 12 13 11 10 12 10 9 8 8
2 15 30 3 13 14 10 7 6 8 9 13 16 20 16 14 13 7 12 7 6 10 14 14 12 12 11 9 7 7 9 10
42 19 0 21 10 8 4 5 6 8 11 13 17 14 14 8 9 11 10 8 16 15 11 12 11 8 6 7 9 11 12 13
17 -14 26 14 6 5 6 7 7 8 12 16 13 11 9 7 12 8 14 14 12 13 9 8 8 11 13 12 11 13 15 14
Height
3168 3169 3169 3168 3167 3166 3165 3163 3160 3158 3157 3155 3152 3150 3148 3145 3142 3139 3136 3132 3129 3126 3123 3120 3116 3113 3111 3107 3104 3101 3099 3097
3164 3164 3163 3162 3161 3160 3159 3157 3155 3153 3152 3150 3148 3146 3143 3140 3137 3133 3129 3126 3123 3120 3116 3112 3108 3104 3102 3099 3095 3092 3090 3089
3159 3159 3159 3158 3158 3157 3155 3153 3151 3149 3147 3145 3143 3140 3138 3135 3131 3128 3123 3120 3116 3111 3106 3102 3099 3095 3091 3089 3086 3083 3079 3078
3158 3158 3157 3156 3155 3154 3152 3149 3147 3145 3142 3139 3136 3132 3130 3126 3122 3118 3115 3112 3108 3102 3097 3093 3088 3084 3080 3076 3074 3070 3067 3066
3157 3156 3154 3153 3152 3149 3147 3144 3141 3138 3136 3132 3128 3124 3121 3117 3112 3108 3106 3102 3098 3093 3087 3082 3077 3072 3069 3065 3062 3058 3054 3051
3153 3152 3150 3148 3146 3144 3141 3138 3135 3131 3128 3125 3120 3116 3112 3108 3104 3099 3093 3089 3084 3080 3076 3072 3067 3063 3058 3053 3049 3045 3041 3036
3150 3147 3145 3142 3140 3137 3135 3132 3128 3125 3122 3116 3113 3108 3103 3098 3093 3087 3083 3079 3074 3070 3065 3060 3054 3049 3043 3038 3033 3027 3024 3020
3146 3143 3140 3138 3135 3133 3130 3126 3123 3118 3114 3110 3104 3098 3093 3087 3081 3076 3071 3067 3063 3058 3051 3044 3039 3032 3027 3021 3016 3012 3007 3004
3142 3139 3135 3132 3130 3127 3124 3120 3116 3112 3107 3102 3097 3090 3083 3077 3072 3067 3061 3055 3048 3042 3035 3029 3023 3016 3009 3004 3000 2996 2993 2990
3136 3133 3130 3128 3124 3120 3116 3113 3109 3102 3095 3087 3081 3076 3072 3068 3062 3055 3049 3042 3035 3028 3020 3013 3006 3000 2995 2992 2988 2985 2983 2980
3131 3127 3124 3120 3115 3110 3104 3099 3093 3087 3082 3077 3072 3067 3061 3055 3048 3041 3034 3026 3019 3012 3005 3000 2994 2991 2987 2983 2980 2977 2974 2970
3123 3119 3115 3109 3105 3100 3095 3090 3085 3079 3073 3067 3062 3056 3049 3042 3035 3028 3020 3013 3006 3000 2996 2991 2988 2983 2979 2975 2972 2969 2966 2963
3115 3112 3108 3104 3099 3094 3088 3082 3076 3071 3065 3059 3052 3045 3039 3031 3024 3016 3008 3002 2997 2992 2988 2984 2980 2976 2972 2967 2963 2960 2956 2954
3112 3106 3101 3096 3090 3085 3079 3074 3069 3064 3057 3051 3044 3036 3027 3018 3011 3004 2998 2993 2989 2985 2980 2976 2973 2969 2965 2960 2956 2952 2949 2946
3104 3099 3093 3086 3080 3074 3069 3065 3060 3053 3047 3039 3032 3023 3016 3007 3001 2996 2992 2987 2983 2979 2974 2969 2965 2960 2956 2952 2948 2944 2941 2938
3095 3088 3082 3076 3071 3067 3062 3057 3051 3044 3037 3029 3021 3013 3007 3000 2994 2991 2986 2982 2977 2971 2966 2961 2956 2951 2947 2944 2940 2936 2933 2929
3084 3078 3073 3068 3062 3058 3053 3046 3039 3033 3027 3019 3012 3005 2998 2993 2988 2983 2979 2974 2969 2963 2957 2952 2948 2943 2939 2935 2930 2926 2923 2920
3074 3069 3065 3061 3057 3051 3045 3038 3031 3024 3017 3010 3003 2996 2990 2985 2980 2975 2970 2965 2960 2955 2950 2944 2940 2935 2930 2926 2921 2917 2913 2909
3066 3062 3059 3055 3049 3044 3038 3031 3023 3016 3010 3002 2994 2989 2984 2977 2972 2967 2962 2957 2952 2947 2942 2937 2932 2927 2921 2916 2911 2907 2902 2898